Temperature
19 19 19 19 18 18 19 20 21 21 22 23 22 22 21 20 20 19 18 19 19 19 18 18 18 18 18 18 18 18 18 19 19 19 19 19 19 19 19 19 19 19 19 19 19 19 19 19 19
19 19 19 19 18 19 20 20 21 22 23 23 22 21 20 19 19 19 18 18 19 19 18 18 18 18 18 18 18 18 18 18 18 18 18 18 18 18 18 18 18 18 18 19 19 19 19 19 19
19 19 19 18 19 19 20 20 21 23 24 23 22 21 20 19 19 19 19 18 18 18 18 18 18 18 18 18 18 18 18 18 18 18 18 18 18 18 18 18 18 18 18 18 18 18 18 18 19
19 19 19 18 19 20 20 20 21 23 23 23 22 20 20 20 20 19 19 19 18 18 18 18 18 18 18 18 18 18 18 18 18 18 18 17 17 17 17 17 18 18 18 18 18 18 18 18 18
20 20 18 19 20 20 20 21 22 23 23 22 21 19 19 20 20 19 19 19 19 18 18 18 18 18 17 17 17 17 17 17 17 17 17 17 17 17 17 17 17 17 17 17 18 18 18 18 18
20 18 18 19 20 20 20 21 22 22 22 22 21 19 19 19 19 19 19 19 19 18 18 18 18 18 17 17 17 17 17 17 17 17 17 17 17 17 17 17 17 17 17 17 17 17 17 17 18
19 18 19 20 20 20 21 22 22 22 22 22 21 19 19 19 19 19 19 19 19 18 18 18 18 17 17 17 17 17 16 16 16 16 16 16 16 16 16 16 16 16 17 17 17 17 17 17 17
20 18 19 19 20 20 21 22 23 23 23 23 22 19 19 19 19 19 19 19 19 18 18 18 18 17 17 17 16 16 16 16 16 16 16 16 16 16 16 16 16 16 16 16 16 16 17 17 17
20 18 18 19 20 20 21 22 23 24 23 23 22 22 21 20 19 19 19 19 19 18 18 18 18 17 17 17 16 16 16 16 16 15 15 15 15 15 15 15 15 15 16 16 16 16 16 17 17
19 18 19 20 20 20 21 22 23 23 22 21 21 21 21 20 20 20 19 19 19 19 18 18 18 17 17 17 16 16 16 15 15 15 15 15 15 15 15 15 15 15 15 15 16 16 16 16 16
19 19 19 20 20 21 22 23 23 22 20 21 21 21 20 20 20 20 20 19 19 19 18 18 18 17 17 17 16 16 16 15 15 15 15 15 15 15 15 15 15 15 15 15 15 15 16 16 16
19 20 20 20 21 21 22 23 23 22 22 23 22 22 21 21 20 20 20 20 19 19 18 18 18 17 17 17 16 16 16 15 15 15 15 15 15 15 15 15 15 15 15 15 15 15 15 15 16
19 19 20 20 21 22 22 22 22 23 23 23 22 22 21 21 21 21 20 20 19 19 19 18 18 17 17 17 16 16 15 15 15 15 15 15 14 14 14 14 15 15 15 15 15 15 15 15 16
19 19 19 20 20 21 21 22 22 22 23 22 22 22 22 21 21 21 20 20 20 19 19 18 18 17 17 17 16 16 15 15 15 15 14 14 14 14 14 14 14 14 14 14 15 15 15 15 15
19 19 19 19 20 20 21 21 21 23 23 22 22 22 22 22 22 21 21 20 20 19 19 18 18 17 17 16 16 15 15 15 15 14 14 14 14 14 14 14 14 14 14 14 14 14 15 15 15
19 18 18 19 20 20 20 20 21 23 22 22 22 22 22 22 22 22 21 21 20 20 19 19 18 17 17 16 16 15 15 15 14 14 14 14 14 14 14 14 14 14 14 14 14 14 14 15 15
18 18 18 19 19 20 20 20 21 22 22 22 22 22 22 22 22 22 21 21 20 20 19 18 18 17 17 16 16 15 15 14 14 14 14 14 14 13 13 13 13 13 13 14 14 14 14 14 15
18 18 19 19 19 20 19 20 21 22 22 22 22 22 22 22 22 22 21 21 20 20 19 19 18 17 17 16 15 15 15 14 14 14 14 13 13 13 13 13 13 13 13 13 14 14 14 14 14
19 19 19 19 20 20 20 20 21 22 21 21 22 22 22 22 22 22 21 21 20 20 19 19 18 17 16 16 15 15 14 14 14 14 13 13 13 13 13 13 13 13 13 13 13 13 14 14 14
19 19 19 20 20 21 20 20 21 21 21 22 22 22 22 22 21 21 21 21 20 20 19 18 18 17 16 16 15 15 14 14 14 13 13 13 13 13 13 13 13 13 13 13 13 13 13 14 14
19 19 19 20 20 21 21 20 21 21 22 22 23 23 22 22 22 21 21 21 20 20 19 19 18 17 16 16 15 15 14 14 14 13 13 13 13 13 13 13 13 13 13 13 13 13 13 14 14
19 20 21 21 19 18 20 19 20 20 21 21 22 22 22 22 22 21 21 21 20 20 19 19 18 17 16 16 15 15 14 14 14 13 13 13 13 13 13 13 13 13 13 13 13 13 13 13 14
21 21 21 21 19 19 19 19 19 20 21 21 21 22 23 23 22 22 21 21 20 20 19 18 18 17 16 16 15 15 14 14 14 13 13 13 13 13 13 13 13 13 13 13 13 13 13 13 13
22 21 20 18 17 18 20 19 20 19 21 22 22 22 23 23 22 22 21 21 20 19 19 18 18 17 16 16 15 15 14 14 14 14 13 13 13 13 13 13 13 13 13 13 13 13 13 13 13
21 18 17 18 17 18 19 19 19 21 22 22 22 23 23 23 22 22 21 20 20 19 19 18 18 17 16 16 15 15 14 14 14 14 13 13 13 13 13 13 13 13 13 13 13 13 13 13 13
21 18 18 18 18 18 19 20 20 22 22 23 24 24 23 23 22 22 22 21 20 20 19 18 18 17 16 16 15 15 15 14 14 14 14 13 13 13 13 13 13 13 13 13 13 13 13 13 13
21 19 18 17 18 18 19 20 21 22 22 22 22 23 23 23 22 22 22 21 21 20 19 19 18 17 17 16 15 15 15 14 14 14 14 14 13 13 13 13 13 13 13 13 13 13 13 13 13
22 20 17 18 18 18 19 19 19 21 22 21 21 22 22 23 22 22 22 21 21 20 19 19 18 17 17 16 16 15 15 15 14 14 14 14 14 14 14 13 13 13 13 13 13 13 13 13 13
22 22 19 16 17 17 18 19 20 20 21 21 21 22 23 23 23 22 22 21 21 20 19 19 18 17 17 16 16 15 15 15 14 14 14 14 14 14 14 14 14 13 13 13 13 13 13 13 13
22 22 19 19 18 17 17 18 20 20 20 21 22 23 23 23 23 23 22 21 20 20 19 19 18 18 17 17 16 16 15 15 15 14 14 14 14 14 14 14 14 14 13 13 13 13 13 13 13
Wind_Speed
8 5 3 2 2 2 1 3 2 1 0 2 7 9 8 6 4 5 3 9 12 10 9 11 11 10 9 8 7 6 6 5 5 4 4 4 4 4 3 3 3 3 3 3 3 3 3 3 3
5 3 1 2 2 0 2 3 2 2 3 5 7 7 7 5 5 7 5 10 12 10 10 11 11 10 9 7 7 6 5 5 4 3 3 3 2 2 1 1 2 2 2 2 2 2 2 2 2
5 2 2 2 1 3 3 3 4 1 0 3 5 5 5 5 6 6 8 13 11 9 10 12 12 10 9 7 6 5 4 4 3 2 2 1 1 0 1 1 1 1 2 2 2 2 2 2 1
3 1 1 1 3 3 4 4 3 1 2 4 6 6 4 3 6 8 13 13 12 9 10 12 12 11 9 8 6 5 3 2 1 1 1 1 2 2 2 2 2 2 3 3 3 3 3 3 2
2 2 1 1 3 2 2 4 3 2 2 4 7 6 4 3 9 14 14 13 12 9 9 12 12 11 9 8 6 4 3 2 1 1 2 2 3 3 3 3 3 3 4 4 4 4 4 4 4
2 3 2 2 2 1 3 4 2 3 3 5 8 7 3 4 9 12 13 11 11 10 9 11 12 11 9 7 6 4 3 1 1 2 3 3 4 4 5 5 5 5 5 6 6 6 5 6 6
3 3 2 2 2 1 3 3 3 4 4 5 8 6 5 4 8 11 12 11 10 9 7 7 9 9 9 8 7 5 3 2 2 3 4 5 6 6 6 6 7 7 7 7 7 7 7 7 7
4 3 1 1 3 3 3 2 4 5 3 5 6 8 7 7 8 10 10 9 8 7 7 6 7 8 7 7 7 5 3 2 3 4 5 6 7 7 7 8 8 8 8 8 8 8 8 9 9
3 2 2 4 4 3 4 2 1 2 4 3 3 6 9 12 11 10 7 6 6 7 6 6 5 5 6 6 5 4 3 2 3 4 6 6 6 6 6 8 9 9 9 8 9 9 9 9 9
4 3 5 4 3 3 3 3 3 3 4 4 5 7 12 12 12 11 9 8 7 7 6 5 6 5 5 5 3 2 2 3 3 4 5 5 4 5 5 6 6 7 7 7 8 8 8 7 5
4 4 2 2 2 3 3 3 2 7 3 7 11 14 14 12 11 11 10 9 8 7 6 6 6 5 4 2 2 1 1 1 2 2 2 2 3 4 4 4 5 5 5 3 5 5 4 4 3
3 2 2 3 4 3 3 2 2 5 8 11 16 17 15 13 13 12 11 9 8 7 7 6 6 5 4 3 2 2 1 0 1 2 2 2 2 2 2 2 3 3 2 2 2 2 3 3 3
2 2 3 4 4 4 4 2 2 4 7 11 14 15 14 14 11 10 11 10 9 8 7 7 7 6 4 3 2 2 1 1 1 3 4 3 2 2 3 2 2 3 3 2 2 2 2 2 2
1 0 2 3 4 3 3 4 1 5 8 12 15 15 14 13 12 10 10 10 9 9 8 7 7 6 5 4 3 2 1 2 3 3 4 5 3 2 2 3 3 2 3 2 1 2 1 2 1
2 3 4 2 3 2 2 5 4 7 9 12 14 13 13 12 12 13 13 12 11 10 8 8 8 6 6 5 3 2 2 3 2 3 5 6 5 3 2 3 3 3 3 3 2 2 1 1 1
4 3 2 3 2 1 1 5 8 5 9 11 11 11 12 11 12 12 12 12 11 10 9 8 8 7 6 5 4 2 3 3 2 2 4 5 6 4 2 3 3 3 3 2 1 1 2 2 2
4 1 2 4 2 1 3 6 8 5 8 10 11 11 11 10 9 9 12 13 12 11 10 8 8 7 6 5 4 3 3 3 2 2 2 3 4 4 3 2 2 3 2 2 2 2 1 2 2
2 1 2 4 3 2 3 8 11 7 8 10 10 10 10 11 10 10 11 12 12 10 10 9 8 7 6 4 4 3 3 2 1 1 1 1 2 3 2 2 3 3 2 2 2 2 1 1 2
4 2 4 5 5 3 8 11 12 9 7 9 9 10 11 12 9 9 10 11 11 10 10 9 8 6 5 3 3 2 0 0 1 1 1 0 1 2 2 2 3 3 2 1 2 1 2 2 2
2 2 4 4 4 4 6 10 10 9 9 10 12 12 13 9 8 10 10 10 11 11 10 9 9 7 6 4 3 2 2 1 1 1 1 1 1 1 1 1 2 2 1 2 2 2 1 2 2
3 5 5 4 4 3 3 8 7 5 5 6 9 11 12 14 15 13 11 10 10 11 11 10 9 8 6 5 3 3 3 3 2 2 2 2 2 1 1 1 1 1 1 1 1 1 2 1 2
4 6 5 2 2 4 1 3 8 4 1 5 7 9 11 12 13 13 12 11 11 11 10 10 9 8 7 6 5 4 3 1 2 2 2 2 2 2 1 1 0 1 0 0 1 1 1 2 1
6 4 2 1 0 3 2 1 8 4 1 5 8 9 9 12 15 15 14 13 11 10 10 10 9 8 7 6 6 5 3 2 2 1 1 2 2 2 1 1 1 1 0 0 1 1 1 1 1
3 4 5 5 4 3 3 2 5 4 6 5 6 7 8 11 12 12 11 10 9 9 9 10 10 7 7 6 6 6 5 3 1 1 1 1 2 2 2 1 1 0 0 1 0 1 1 1 1
5 6 5 6 5 5 4 1 6 7 5 6 7 7 8 10 12 12 12 11 11 11 10 10 10 8 7 7 6 6 6 5 4 3 2 1 1 2 3 1 1 1 1 0 1 2 1 1 1
3 8 6 3 3 5 5 1 6 6 3 2 4 6 7 10 11 13 14 13 12 12 11 11 11 9 8 7 6 6 5 4 3 4 3 3 3 3 3 2 2 1 1 1 1 1 1 1 1
4 3 6 6 0 2 5 5 6 4 3 1 2 5 8 10 12 13 12 12 12 13 12 12 11 9 8 8 7 6 5 5 5 4 3 2 3 2 2 1 2 1 1 1 1 1 0 1 1
5 7 6 4 2 2 5 4 4 5 5 4 4 6 8 8 10 11 11 12 12 12 11 11 11 10 9 9 8 6 6 6 5 4 4 3 3 2 1 1 1 1 1 1 1 1 1 0 0
0 2 4 4 5 4 2 6 6 7 7 7 8 8 8 10 11 11 11 11 11 10 10 10 10 9 8 9 7 7 6 6 5 4 5 4 3 2 2 2 2 2 1 1 2 1 1 1 0
5 5 6 4 2 4 3 7 7 6 6 5 7 7 7 8 9 10 11 10 9 10 10 10 10 10 9 9 8 8 7 6 5 5 5 5 4 3 3 3 3 3 2 2 2 2 1 1 1
Wind_Direction
189 146 103 84 67 41 280 271 226 241 288 54 83 88 87 72 90 133 176 145 137 138 140 136 132 130 128 125 120 114 109 107 107 107 101 98 102 105 104 104 105 110 111 109 111 110 105 100 90
161 137 101 73 95 108 258 251 201 194 157 122 91 88 83 80 94 116 129 139 136 138 138 135 134 131 129 125 118 111 105 101 97 97 97 95 100 102 113 127 133 150 152 146 154 149 139 129 112
161 163 130 94 155 204 219 239 212 214 189 115 88 65 84 114 123 136 149 142 136 136 138 138 135 131 128 124 121 116 109 102 92 82 83 72 45 350 290 267 243 215 213 195 193 194 191 184 175
141 91 61 91 234 234 205 232 220 182 68 77 103 73 62 109 140 142 142 139 137 141 142 142 138 134 131 128 125 119 112 103 82 40 335 292 294 295 292 286 271 248 244 237 227 217 217 220 225
86 100 49 272 254 250 228 229 215 135 96 94 100 93 69 74 120 134 141 141 141 146 149 149 144 142 139 138 136 130 118 92 29 337 325 312 297 288 284 283 277 268 261 251 243 237 229 231 243
73 82 109 257 255 266 264 232 169 125 114 112 108 110 124 141 130 139 144 146 148 152 158 158 154 153 152 151 151 150 150 145 353 330 316 303 301 293 280 275 274 267 263 257 252 246 237 238 245
136 131 202 211 202 250 248 236 170 152 143 146 130 110 139 167 146 140 143 145 150 152 154 162 164 164 163 164 165 169 181 210 273 305 309 297 295 299 293 279 270 267 265 263 259 254 248 249 251
157 131 228 209 178 223 242 210 161 153 142 131 126 137 167 189 154 136 135 140 148 153 157 166 172 171 173 181 182 186 198 229 274 292 300 300 303 306 299 287 272 268 269 268 266 261 256 255 256
124 99 211 209 188 217 228 188 147 107 98 71 110 156 165 158 142 130 126 130 148 159 164 165 170 172 181 192 196 198 215 256 290 304 305 306 307 306 302 290 274 265 267 270 271 267 262 257 258
136 173 219 215 190 193 236 186 168 93 80 72 80 111 140 148 149 150 154 160 164 170 171 163 163 165 174 191 182 205 246 280 299 305 313 315 316 316 314 302 288 273 273 276 274 271 267 262 256
174 196 227 266 239 225 223 227 201 130 152 173 158 155 159 160 164 168 171 172 174 169 161 157 158 156 156 158 160 178 230 302 328 330 339 355 358 355 355 350 331 315 301 298 295 292 279 258 238
183 215 194 252 245 240 225 219 175 174 197 182 167 164 166 172 178 178 177 178 168 157 157 151 148 144 146 128 116 128 122 82 349 356 23 42 15 2 3 0 340 334 318 304 298 286 279 266 248
223 263 268 288 283 274 264 233 203 218 181 168 162 165 175 181 184 180 177 172 162 157 156 148 140 135 134 111 99 95 100 90 50 35 27 42 33 6 0 351 360 348 330 311 305 296 294 285 258
191 72 301 287 292 311 298 278 197 222 167 163 166 174 183 183 179 172 172 167 165 163 156 147 137 137 127 111 104 108 98 81 68 57 46 47 47 20 4 356 354 345 339 328 307 309 301 287 275
82 37 343 282 260 287 314 301 236 204 165 168 177 182 185 187 177 174 174 168 166 164 154 147 142 133 122 114 107 101 94 93 73 56 53 48 44 39 27 5 352 335 344 353 356 343 349 336 314
67 64 306 282 246 247 153 256 262 206 175 181 187 188 186 191 183 177 169 163 161 156 150 147 137 128 120 115 107 98 94 93 89 77 55 41 36 41 41 15 347 341 357 359 1 5 358 344 327
43 31 268 296 278 222 184 249 264 232 193 196 196 194 189 191 188 174 165 162 161 158 150 140 134 134 128 116 106 95 93 97 111 91 60 38 30 34 41 16 339 350 357 359 354 26 8 338 324
154 189 258 258 263 217 234 259 263 246 215 208 201 194 188 187 190 173 163 160 157 154 147 140 136 137 125 105 89 69 64 61 94 111 68 36 22 28 43 11 345 353 8 1 2 2 347 314 307
148 175 233 247 239 218 236 251 259 251 225 211 202 197 193 194 183 163 156 152 150 150 147 145 144 146 131 115 112 104 102 282 296 273 268 2 8 18 36 2 348 354 6 344 352 8 357 347 1
161 206 254 279 260 233 253 265 261 239 218 205 195 197 196 188 166 164 158 156 160 160 156 154 153 152 148 147 155 166 177 219 240 281 306 283 276 321 10 13 347 347 3 8 14 41 34 355 32
212 206 224 242 313 314 329 318 298 282 228 197 191 192 188 184 176 174 168 165 161 162 163 161 159 154 154 145 114 80 57 32 16 335 303 295 274 302 12 2 358 1 48 2 338 59 96 34 358
221 221 210 214 30 311 48 307 303 297 232 202 200 190 188 187 177 173 171 168 169 170 163 155 156 156 156 143 131 135 141 174 240 247 264 290 289 288 302 348 11 30 60 358 318 69 110 110 48
208 212 207 263 95 333 334 169 296 327 221 223 214 200 189 182 176 176 176 174 171 164 159 156 154 156 158 150 146 145 154 196 245 270 311 315 310 308 307 328 17 38 31 349 15 37 72 103 121
154 67 34 40 66 346 275 162 282 265 232 221 214 204 190 179 175 173 169 162 163 159 156 154 154 161 164 159 156 163 168 173 176 291 325 300 295 307 305 290 318 338 352 358 40 58 77 80 87
81 78 33 13 13 277 288 154 257 269 248 203 196 199 185 172 169 168 169 170 168 166 164 160 159 168 174 171 174 179 178 178 191 211 218 226 264 276 278 273 274 269 253 23 67 64 53 71 89
156 132 145 171 246 295 345 338 274 286 277 190 169 170 170 172 177 179 180 178 175 173 169 166 169 174 180 182 187 188 182 180 198 209 204 208 220 238 252 255 255 255 233 127 88 69 31 89 99
132 157 165 138 133 342 326 321 319 331 356 40 139 153 175 182 185 186 184 181 178 177 178 175 176 179 186 188 185 189 190 189 200 205 199 211 228 240 244 242 240 247 210 151 123 91 345 111 137
153 151 99 105 119 335 321 308 265 270 261 252 216 202 201 193 191 190 188 186 185 184 182 178 178 183 188 188 189 192 195 198 200 195 207 221 234 230 212 210 201 198 190 164 138 151 246 103 264
70 96 112 119 146 146 293 284 245 241 244 236 236 226 213 203 198 195 193 191 188 184 180 181 185 184 189 192 193 190 199 203 201 207 219 223 227 220 213 207 195 186 185 169 150 183 178 152 302
181 180 147 141 228 162 173 269 290 272 264 245 246 243 227 211 204 197 191 185 184 187 188 189 189 189 194 193 190 194 201 198 200 213 222 220 226 233 225 213 199 197 189 172 172 197 195 193 212
Height
1512 1513 1514 1515 1517 1521 1521 1513 1507 1505 1502 1501 1500 1500 1504 1508 1512 1519 1516 1515 1516 1517 1518 1519 1520 1520 1520 1520 1520 1521 1521 1521 1521 1521 1521 1521 1522 1522 1522 1522 1522 1523 1523 1523 1523 1523 1523 1523 1523
1512 1513 1515 1515 1519 1527 1521 1511 1508 1502 1501 1501 1502 1503 1505 1509 1510 1512 1513 1515 1516 1518 1518 1519 1519 1520 1520 1520 1520 1520 1520 1520 1520 1520 1520 1520 1520 1520 1521 1521 1521 1521 1521 1522 1522 1522 1522 1523 1523
1512 1513 1514 1514 1519 1523 1518 1509 1504 1501 1500 1500 1503 1505 1507 1510 1511 1512 1513 1515 1517 1518 1519 1519 1519 1519 1519 1519 1519 1519 1519 1519 1518 1518 1518 1518 1519 1519 1519 1519 1519 1520 1520 1520 1521 1521 1521 1522 1522
1512 1513 1514 1517 1518 1512 1509 1505 1501 1501 1501 1501 1503 1507 1510 1512 1511 1512 1514 1516 1517 1518 1519 1519 1519 1519 1518 1518 1518 1518 1518 1517 1517 1517 1517 1517 1517 1517 1517 1517 1517 1517 1518 1518 1519 1519 1520 1520 1521
1512 1512 1515 1518 1514 1508 1504 1502 1501 1500 1501 1502 1503 1508 1511 1513 1512 1513 1514 1516 1517 1518 1519 1519 1519 1518 1518 1518 1517 1517 1516 1516 1515 1515 1514 1514 1514 1514 1515 1515 1515 1515 1516 1516 1517 1517 1518 1518 1519
1511 1511 1519 1521 1514 1507 1504 1501 1501 1501 1502 1504 1505 1509 1513 1514 1513 1514 1515 1516 1517 1518 1518 1519 1519 1518 1518 1517 1517 1516 1515 1515 1514 1513 1513 1513 1512 1512 1512 1512 1513 1513 1513 1514 1514 1515 1515 1516 1517
1510 1512 1516 1515 1514 1510 1504 1501 1501 1501 1501 1503 1504 1509 1513 1514 1514 1514 1515 1517 1518 1518 1518 1518 1518 1518 1518 1517 1516 1515 1515 1514 1513 1512 1512 1511 1511 1511 1510 1510 1510 1511 1511 1511 1511 1512 1513 1514 1515
1507 1511 1513 1513 1512 1509 1502 1500 1499 1500 1501 1503 1504 1507 1510 1513 1514 1515 1516 1517 1518 1518 1518 1518 1518 1518 1517 1517 1516 1515 1514 1513 1513 1512 1511 1511 1510 1510 1509 1509 1509 1509 1509 1509 1509 1509 1510 1511 1512
1507 1513 1516 1511 1509 1506 1501 1500 1500 1500 1501 1502 1503 1504 1506 1510 1513 1515 1516 1517 1518 1518 1518 1518 1518 1518 1517 1517 1516 1515 1514 1513 1512 1512 1511 1510 1509 1509 1508 1508 1507 1507 1507 1507 1507 1507 1507 1508 1509
1506 1513 1509 1504 1502 1501 1500 1499 1499 1501 1501 1503 1504 1505 1507 1509 1512 1513 1515 1516 1517 1517 1518 1518 1518 1517 1517 1516 1516 1515 1514 1513 1512 1511 1510 1509 1509 1508 1507 1506 1506 1506 1505 1505 1505 1505 1505 1506 1507
1503 1506 1503 1501 1501 1500 1500 1499 1499 1500 1502 1502 1502 1504 1506 1509 1511 1512 1514 1515 1515 1516 1517 1517 1517 1517 1516 1516 1515 1514 1513 1513 1512 1511 1510 1509 1508 1507 1506 1505 1505 1504 1504 1504 1504 1504 1504 1504 1505
1502 1502 1501 1501 1499 1500 1500 1499 1498 1498 1499 1499 1500 1502 1505 1507 1509 1511 1512 1514 1515 1516 1516 1516 1516 1516 1516 1515 1515 1514 1513 1512 1511 1510 1509 1508 1507 1506 1505 1504 1503 1503 1502 1502 1502 1502 1502 1502 1503
1502 1502 1502 1501 1499 1499 1499 1498 1498 1497 1497 1499 1500 1502 1504 1506 1508 1510 1511 1513 1514 1514 1515 1515 1515 1515 1515 1515 1514 1513 1512 1511 1510 1509 1508 1507 1506 1505 1504 1503 1502 1501 1501 1500 1500 1500 1500 1500 1501
1503 1503 1503 1501 1500 1499 1499 1497 1497 1496 1497 1498 1499 1501 1503 1505 1506 1508 1510 1511 1512 1513 1514 1514 1514 1514 1514 1514 1513 1512 1511 1510 1509 1508 1507 1506 1505 1504 1503 1502 1501 1500 1499 1499 1498 1499 1499 1499 1499
1501 1503 1504 1502 1501 1500 1500 1500 1495 1494 1496 1497 1498 1499 1501 1503 1504 1506 1508 1509 1511 1512 1513 1513 1513 1513 1513 1513 1512 1511 1510 1510 1509 1508 1507 1505 1504 1503 1501 1500 1499 1498 1498 1497 1497 1497 1497 1497 1497
1503 1509 1512 1504 1501 1500 1505 1506 1493 1493 1494 1495 1496 1498 1499 1501 1503 1504 1506 1508 1509 1511 1512 1512 1512 1512 1512 1512 1511 1510 1510 1509 1508 1507 1506 1504 1503 1501 1500 1499 1498 1497 1496 1495 1495 1495 1495 1495 1496
1510 1516 1514 1507 1500 1499 1502 1502 1491 1491 1492 1493 1494 1495 1497 1500 1502 1503 1505 1506 1508 1509 1510 1510 1511 1511 1511 1511 1510 1510 1509 1508 1507 1506 1505 1503 1501 1500 1499 1498 1496 1495 1495 1494 1494 1494 1494 1494 1494
1518 1517 1514 1509 1501 1500 1501 1498 1489 1489 1490 1491 1491 1493 1495 1497 1499 1501 1503 1505 1506 1508 1509 1509 1509 1510 1510 1509 1509 1509 1508 1508 1507 1505 1504 1502 1500 1499 1498 1497 1496 1495 1494 1493 1493 1493 1493 1493 1493
1508 1512 1512 1506 1498 1499 1499 1496 1488 1486 1487 1488 1489 1491 1492 1494 1497 1500 1502 1503 1505 1506 1507 1508 1508 1508 1508 1508 1508 1508 1507 1507 1506 1505 1503 1501 1500 1498 1497 1496 1495 1494 1493 1492 1492 1492 1492 1492 1492
1506 1511 1509 1503 1496 1498 1498 1494 1485 1482 1482 1482 1485 1488 1490 1492 1495 1497 1500 1501 1503 1504 1505 1506 1507 1507 1507 1507 1507 1507 1506 1506 1505 1504 1503 1501 1500 1498 1497 1496 1494 1493 1493 1492 1491 1491 1491 1491 1491
1507 1508 1505 1504 1498 1495 1497 1497 1487 1480 1479 1480 1482 1483 1486 1488 1491 1494 1497 1499 1501 1502 1504 1504 1505 1506 1506 1506 1506 1506 1506 1505 1504 1503 1502 1501 1499 1498 1497 1495 1494 1493 1492 1492 1491 1491 1491 1491 1491
1506 1497 1497 1499 1506 1509 1503 1515 1494 1485 1481 1479 1480 1481 1483 1486 1488 1491 1494 1496 1499 1501 1502 1503 1504 1504 1505 1505 1505 1505 1505 1504 1504 1503 1502 1501 1499 1498 1497 1495 1494 1493 1492 1491 1491 1491 1491 1491 1491
1496 1492 1495 1498 1505 1511 1506 1513 1504 1488 1485 1481 1479 1480 1481 1483 1485 1488 1491 1494 1497 1499 1500 1501 1502 1503 1503 1504 1504 1504 1504 1503 1503 1502 1501 1500 1499 1498 1497 1495 1494 1493 1492 1491 1491 1490 1490 1490 1491
1490 1496 1500 1506 1512 1521 1509 1513 1508 1494 1485 1480 1478 1479 1480 1482 1484 1487 1490 1493 1496 1498 1499 1500 1501 1501 1502 1502 1503 1503 1503 1502 1502 1502 1501 1500 1499 1498 1497 1496 1495 1493 1492 1491 1491 1490 1490 1490 1490
1494 1510 1525 1527 1531 1525 1507 1509 1505 1485 1479 1477 1476 1478 1479 1481 1483 1486 1489 1491 1493 1495 1497 1498 1499 1500 1500 1501 1501 1502 1502 1501 1501 1501 1500 1499 1499 1498 1497 1496 1495 1494 1493 1492 1491 1490 1490 1490 1490
1496 1507 1527 1535 1534 1526 1510 1510 1498 1481 1477 1476 1476 1477 1479 1480 1482 1484 1486 1488 1491 1493 1494 1496 1497 1498 1499 1499 1500 1500 1501 1500 1500 1500 1500 1499 1498 1498 1497 1496 1495 1494 1493 1492 1491 1491 1490 1490 1490
1497 1504 1506 1520 1523 1529 1519 1506 1492 1481 1480 1478 1478 1478 1478 1479 1481 1482 1484 1486 1488 1490 1492 1493 1495 1496 1497 1497 1498 1499 1499 1499 1499 1499 1499 1498 1498 1497 1497 1496 1495 1494 1493 1492 1492 1491 1490 1490 1490
1489 1497 1511 1520 1531 1535 1524 1514 1508 1490 1484 1480 1479 1478 1478 1478 1479 1480 1482 1484 1486 1488 1490 1491 1493 1494 1495 1496 1496 1497 1498 1498 1498 1498 1498 1498 1497 1497 1497 1496 1495 1494 1493 1493 1492 1491 1491 1490 1490
1492 1496 1506 1518 1522 1533 1534 1522 1492 1487 1482 1480 1478 1477 1476 1476 1477 1478 1480 1482 1484 1486 1488 1489 1490 1491 1492 1494 1494 1495 1496 1497 1497 1497 1497 1497 1496 1496 1496 1495 1495 1494 1493 1493 1492 1491 1491 1490 1490
1487 1492 1502 1517 1519 1523 1529 1520 1484 1483 1480 1478 1476 1475 1475 1475 1475 1476 1478 1480 1482 1483 1485 1486 1488 1489 1490 1491 1492 1493 1494 1495 1495 1495 1495 1495 1495 1495 1495 1494 1494 1494 1493 1492 1492 1491 1490 1490 1489